Ketchikan, AK

4:08 PM AKDT on March 29, 2017 (GMT -0800)
Ketchikan International

Weather History for PAKT - November, 2012

Change the Weather History Date:

Thursday, November 29, 2012

  Actual Average Record
Temperature  
Mean Temperature 41 °F -  
Max Temperature 43 °F 43 °F 57 °F (1979)
Min Temperature 39 °F 32 °F 16 °F (2005)
Degree Days  
Heating Degree Days 24    
Moisture  
Dew Point 39 °F    
Average Humidity 95    
Maximum Humidity 100    
Minimum Humidity 82    
Precipitation  
Precipitation 0.89 in - - ()
Sea Level Pressure  
Sea Level Pressure 29.29 in    
Wind  
Wind Speed 1 mph (WSW)    
Max Wind Speed 6 mph    
Max Gust Speed -    
Visibility 8 miles    
Events Rain    
Averages and records for this station are not official NWS values.
T = Trace of Precipitation, MM = Missing Value Source: NWS Daily Summary

Daily Weather History Graph

Daily Weather History Graph

Search for Another Location

Airport or City:

Trip Planner

Search our weather history database for the weather conditions in past years. The results will help you decide how hot, cold, wet, or windy it might be!

Date:

Astronomy

Nov. 29, 2012 Rise Set
Actual Time 7:47 AM AKST 3:22 PM AKST
Civil Twilight 7:03 AM AKST 4:06 PM AKST
Nautical Twilight 6:16 AM AKST 4:53 PM AKST
Astronomical Twilight 5:32 AM AKST 5:37 PM AKST
Moon 4:30 PM AKST (11/29) 8:41 AM AKST (11/29)
Length of Visible Light 9h 03m
Length of Day
7h 34m
Full, 99% of the Moon is Illuminated
Nov 29
Full
Dec 6
Last Quarter
Dec 12
New
Dec 19
First Quarter
Dec 28
Full

Hourly Weather History & Observations

Time (AKST) Temp. Windchill Dew Point Humidity Pressure Visibility Wind Dir Wind Speed Gust Speed Precip Events Conditions
12:25 AM 41.0 °F - 39.2 °F 93% 29.35 in 10.0 mi Calm Calm - 0.01 in Rain Light Rain
12:53 AM 41.0 °F - 39.9 °F 96% 29.35 in 10.0 mi Calm Calm - 0.01 in Rain Light Rain
1:02 AM 41.0 °F - 39.2 °F 93% 29.34 in 10.0 mi Calm Calm - 0.01 in Rain Light Rain
1:50 AM 41.0 °F - 39.2 °F 93% 29.33 in 10.0 mi Calm Calm - 0.02 in Rain Light Rain
1:53 AM 41.0 °F - 39.9 °F 96% 29.33 in 10.0 mi Calm Calm - 0.02 in Rain Light Rain
2:53 AM 41.0 °F - 39.9 °F 96% 29.32 in 7.0 mi Calm Calm - 0.05 in Rain Light Rain
3:53 AM 39.9 °F - 39.9 °F 100% 29.31 in 8.0 mi Calm Calm - 0.07 in Rain Light Rain
4:53 AM 39.9 °F 36.7 °F 39.0 °F 97% 29.28 in 9.0 mi NNW 4.6 mph - 0.07 in Rain Light Rain
5:41 AM 39.2 °F 37.0 °F 39.2 °F 100% 29.26 in 5.0 mi WNW 3.5 mph - 0.05 in Rain Light Rain
5:53 AM 39.9 °F 37.8 °F 39.0 °F 97% 29.26 in 6.0 mi WNW 3.5 mph - 0.07 in Rain Light Rain
6:06 AM 39.2 °F 37.0 °F 39.2 °F 100% 29.25 in 5.0 mi NW 3.5 mph - 0.02 in Rain Rain
6:14 AM 39.2 °F - 39.2 °F 100% 29.25 in 7.0 mi Calm Calm - 0.03 in Rain Light Rain
6:53 AM 39.9 °F - 39.0 °F 97% 29.24 in 10.0 mi Calm Calm - 0.04 in Rain Light Rain
7:53 AM 39.9 °F - 39.0 °F 97% 29.24 in 10.0 mi Calm Calm - 0.05 in Rain Light Rain
8:53 AM 39.9 °F - 39.0 °F 97% 29.25 in 10.0 mi Calm Calm - 0.01 in   Overcast
9:53 AM 42.1 °F 38.4 °F 37.9 °F 85% 29.26 in 10.0 mi South 5.8 mph - 0.00 in   Overcast
10:53 AM 43.0 °F - 37.9 °F 82% 29.26 in 10.0 mi Calm Calm - 0.00 in   Overcast
11:53 AM 42.1 °F 38.4 °F 37.9 °F 85% 29.27 in 10.0 mi South 5.8 mph - 0.02 in Rain Light Rain
12:53 PM 41.0 °F 38.0 °F 37.9 °F 89% 29.28 in 10.0 mi South 4.6 mph - 0.02 in   Overcast
1:53 PM 41.0 °F 37.1 °F 37.9 °F 89% 29.29 in 4.0 mi South 5.8 mph - 0.01 in Rain Light Rain
2:53 PM 41.0 °F 38.0 °F 37.9 °F 89% 29.29 in 10.0 mi South 4.6 mph - 0.00 in   Overcast
3:53 PM 39.9 °F - 37.9 °F 93% 29.28 in 10.0 mi Calm Calm - 0.00 in   Overcast
4:53 PM 39.9 °F - 37.0 °F 89% 29.27 in 10.0 mi Calm Calm - N/A   Overcast
5:53 PM 39.0 °F - 37.9 °F 96% 29.27 in 10.0 mi Calm Calm - 0.00 in Rain Light Rain
6:44 PM 39.2 °F 37.0 °F 37.4 °F 93% 29.28 in 6.0 mi WNW 3.5 mph - 0.07 in Rain Light Rain
6:53 PM 39.0 °F 36.8 °F 39.0 °F 100% 29.29 in 5.0 mi West 3.5 mph - 0.09 in Rain Rain
7:53 PM 39.9 °F - 37.9 °F 93% 29.29 in 10.0 mi Calm Calm - 0.11 in Rain Light Rain
8:53 PM 39.0 °F - 37.9 °F 96% 29.30 in 7.0 mi Calm Calm - 0.03 in Rain Light Rain
8:54 PM 39.2 °F - 37.4 °F 93% 29.29 in 8.0 mi Calm Calm - 0.00 in Rain Light Rain
9:16 PM 39.2 °F - 37.4 °F 93% 29.29 in 10.0 mi Calm Calm - 0.00 in Rain Light Rain
9:28 PM 39.2 °F - 37.4 °F 93% 29.29 in 5.0 mi Calm Calm - 0.01 in Rain Light Rain
9:40 PM 39.2 °F - 37.4 °F 93% 29.29 in 4.0 mi Calm Calm - 0.01 in Rain Light Rain
9:53 PM 39.0 °F - 39.0 °F 100% 29.29 in 4.0 mi Calm Calm - 0.03 in Rain Light Rain
10:19 PM 39.2 °F - 37.4 °F 93% 29.29 in 4.0 mi Calm Calm - 0.03 in Rain Light Rain
10:38 PM 39.2 °F - 39.2 °F 100% 29.29 in 4.0 mi Calm Calm - 0.05 in Rain Light Rain
10:53 PM 39.0 °F - 39.0 °F 100% 29.29 in 6.0 mi Calm Calm - 0.08 in Rain Light Rain
11:36 PM 39.2 °F - 39.2 °F 100% 29.29 in 6.0 mi Calm Calm - 0.07 in Rain Rain
11:53 PM 39.0 °F - 39.0 °F 100% 29.29 in 5.0 mi Calm Calm - 0.11 in Rain Rain